EZY764 EGPH-EGKK

Flight info

Callsign EZY764
Flight time 1h 12m
Altitude 35000
Route GOSAM P600 FENIK L612 NAVSO DCT ADZOP DCT EGTOC DCT KEPAD L151 DISIT
Aircraft A319/M-SDE3FGHIRWY/LB1

Departure

Time 2026-04-23 09:58
Airport Edinburgh Airport (EGPH)

Arrival

Time 2026-04-23 11:10
Airport London Gatwick Airport (EGKK)
Time Latitude Longitude Altitude Speed Heading
2026-04-23 09:29 55.94793 -3.35687 117 ft 0 kts 208°
2026-04-23 09:33 55.94793 -3.35688 117 ft 1 kts 211°
2026-04-23 09:47 55.94811 -3.35668 113 ft 4 kts 214°
2026-04-23 09:47 55.94833 -3.35639 113 ft 4 kts 224°
2026-04-23 09:47 55.94848 -3.35603 113 ft 4 kts 262°
2026-04-23 09:48 55.94846 -3.35578 114 ft 1 kts 298°
2026-04-23 09:48 55.94845 -3.35574 114 ft 0 kts 298°
2026-04-23 09:50 55.94847 -3.35579 114 ft 1 kts 298°
2026-04-23 09:50 55.94853 -3.35599 112 ft 3 kts 298°
2026-04-23 09:50 55.94863 -3.35632 115 ft 4 kts 299°
2026-04-23 09:51 55.94877 -3.35678 114 ft 5 kts 299°
2026-04-23 09:51 55.94895 -3.35737 115 ft 6 kts 299°
2026-04-23 09:51 55.94918 -3.35809 115 ft 7 kts 298°
2026-04-23 09:51 55.94958 -3.35858 116 ft 8 kts 355°
2026-04-23 09:52 55.95015 -3.35829 116 ft 9 kts 13°
2026-04-23 09:52 55.95067 -3.35883 115 ft 10 kts 295°
2026-04-23 09:52 55.95093 -3.36001 115 ft 11 kts 290°
2026-04-23 09:52 55.95120 -3.36135 114 ft 12 kts 290°
2026-04-23 09:53 55.95131 -3.36284 116 ft 13 kts 249°
2026-04-23 09:53 55.95085 -3.36426 115 ft 14 kts 239°
2026-04-23 09:53 55.95035 -3.36573 114 ft 14 kts 239°
2026-04-23 09:53 55.94983 -3.36728 116 ft 15 kts 239°
2026-04-23 09:54 55.94926 -3.36895 114 ft 16 kts 239°
2026-04-23 09:54 55.94866 -3.37072 114 ft 17 kts 239°
2026-04-23 09:54 55.94804 -3.37257 114 ft 18 kts 239°
2026-04-23 09:54 55.94739 -3.37449 116 ft 18 kts 239°
2026-04-23 09:55 55.94672 -3.37649 113 ft 19 kts 239°
2026-04-23 09:55 55.94602 -3.37855 113 ft 20 kts 238°
2026-04-23 09:55 55.94528 -3.38068 116 ft 21 kts 238°
2026-04-23 09:55 55.94453 -3.38290 114 ft 21 kts 239°
2026-04-23 09:56 55.94377 -3.38515 114 ft 22 kts 239°
2026-04-23 09:56 55.94303 -3.38733 114 ft 11 kts 239°
2026-04-23 09:56 55.94292 -3.38864 116 ft 12 kts 305°
2026-04-23 09:56 55.94363 -3.38949 114 ft 14 kts 328°
2026-04-23 09:57 55.94441 -3.38894 114 ft 14 kts 58°
2026-04-23 09:57 55.94507 -3.38697 113 ft 35 kts 58°
2026-04-23 09:57 55.94779 -3.37900 114 ft 112 kts 59°
2026-04-23 09:57 55.95289 -3.36401 189 ft 161 kts 58°
2026-04-23 09:58 55.95839 -3.34755 959 ft 156 kts 58°
2026-04-23 09:58 55.96617 -3.33382 1659 ft 162 kts 37°
2026-04-23 09:58 55.97551 -3.32063 2095 ft 182 kts 44°
2026-04-23 09:58 55.98542 -3.30441 2493 ft 206 kts 45°
2026-04-23 09:59 55.99703 -3.28688 2959 ft 233 kts 31°
2026-04-23 09:59 56.01359 -3.28110 3435 ft 259 kts 351°
2026-04-23 09:59 56.02983 -3.29552 4217 ft 269 kts 313°
2026-04-23 09:59 56.03859 -3.32465 5133 ft 270 kts 277°
2026-04-23 10:00 56.03785 -3.35825 5758 ft 272 kts 255°
2026-04-23 10:00 56.03235 -3.39039 5954 ft 269 kts 246°
2026-04-23 10:00 56.02559 -3.42105 6009 ft 269 kts 245°
2026-04-23 10:00 56.01886 -3.45215 6016 ft 269 kts 246°
2026-04-23 10:01 56.01269 -3.48402 6761 ft 272 kts 249°
2026-04-23 10:01 56.00709 -3.51640 7750 ft 274 kts 251°
2026-04-23 10:01 56.00187 -3.54931 8686 ft 277 kts 252°
2026-04-23 10:01 55.99688 -3.58281 9629 ft 281 kts 253°
2026-04-23 10:02 55.99199 -3.61682 10553 ft 284 kts 253°
2026-04-23 10:02 55.98696 -3.65216 11020 ft 305 kts 253°
2026-04-23 10:02 55.98151 -3.69027 11316 ft 329 kts 253°
2026-04-23 10:02 55.97568 -3.73091 11734 ft 344 kts 253°
2026-04-23 10:03 55.96974 -3.77217 12403 ft 351 kts 254°
2026-04-23 10:03 55.96363 -3.81456 13158 ft 355 kts 254°
2026-04-23 10:03 55.95743 -3.85747 13908 ft 359 kts 253°
2026-04-23 10:03 55.95114 -3.90088 14606 ft 364 kts 253°
2026-04-23 10:04 55.94478 -3.94480 15274 ft 367 kts 254°
2026-04-23 10:04 55.93694 -3.98820 15945 ft 369 kts 245°
2026-04-23 10:04 55.92344 -4.02715 16647 ft 371 kts 230°
2026-04-23 10:04 55.90502 -4.05846 17322 ft 374 kts 217°
2026-04-23 10:05 55.88348 -4.08494 17962 ft 378 kts 215°
2026-04-23 10:05 55.86170 -4.11147 18623 ft 381 kts 215°
2026-04-23 10:05 55.83974 -4.13824 19241 ft 384 kts 215°
2026-04-23 10:05 55.81762 -4.16516 19804 ft 387 kts 215°
2026-04-23 10:06 55.79530 -4.19235 20376 ft 390 kts 215°
2026-04-23 10:06 55.77252 -4.21882 20981 ft 393 kts 210°
2026-04-23 10:06 55.74770 -4.23787 21535 ft 396 kts 198°
2026-04-23 10:06 55.72056 -4.24754 22066 ft 401 kts 186°
2026-04-23 10:07 55.69260 -4.24678 22610 ft 405 kts 174°
2026-04-23 10:07 55.66508 -4.23576 23181 ft 408 kts 163°
2026-04-23 10:07 55.63876 -4.21644 23701 ft 412 kts 153°
2026-04-23 10:07 55.61357 -4.19189 24166 ft 415 kts 152°
2026-04-23 10:08 55.58822 -4.16706 24587 ft 418 kts 153°
2026-04-23 10:08 55.56274 -4.14218 25022 ft 419 kts 153°
2026-04-23 10:08 55.53715 -4.11726 25426 ft 422 kts 152°
2026-04-23 10:09 55.48564 -4.06723 26149 ft 428 kts 152°
2026-04-23 10:09 55.45945 -4.04180 26546 ft 431 kts 152°
2026-04-23 10:09 55.43310 -4.01627 26906 ft 434 kts 152°
2026-04-23 10:09 55.40653 -3.99053 27267 ft 438 kts 152°
2026-04-23 10:10 55.37976 -3.96459 27639 ft 440 kts 152°
2026-04-23 10:10 55.37188 -3.95697 27742 ft 441 kts 152°
2026-04-23 10:10 55.34722 -3.93320 28078 ft 443 kts 152°
2026-04-23 10:10 55.32010 -3.90711 28435 ft 446 kts 152°
2026-04-23 10:11 55.29279 -3.88087 28783 ft 449 kts 153°
2026-04-23 10:11 55.26534 -3.85452 29105 ft 451 kts 152°
2026-04-23 10:11 55.23769 -3.82807 29408 ft 455 kts 153°
2026-04-23 10:11 55.20864 -3.80587 29703 ft 457 kts 162°
2026-04-23 10:12 55.17825 -3.78898 30000 ft 460 kts 163°
2026-04-23 10:12 55.14810 -3.77251 30297 ft 462 kts 163°
2026-04-23 10:12 55.11731 -3.75568 30621 ft 464 kts 163°
2026-04-23 10:12 55.08652 -3.73881 31021 ft 463 kts 163°
2026-04-23 10:13 55.05583 -3.72196 31380 ft 463 kts 163°
2026-04-23 10:13 55.02508 -3.70514 31759 ft 463 kts 163°
2026-04-23 10:13 54.99436 -3.68842 32125 ft 463 kts 163°
2026-04-23 10:13 54.96365 -3.67176 32523 ft 462 kts 163°
2026-04-23 10:14 54.93342 -3.65534 32891 ft 462 kts 163°
2026-04-23 10:14 54.90273 -3.63871 33247 ft 462 kts 163°
2026-04-23 10:14 54.87205 -3.62212 33647 ft 462 kts 163°
2026-04-23 10:14 54.84134 -3.60554 33968 ft 463 kts 163°
2026-04-23 10:15 54.81060 -3.58893 34348 ft 463 kts 163°
2026-04-23 10:15 54.77985 -3.57236 34641 ft 464 kts 163°
2026-04-23 10:15 54.74907 -3.55586 35003 ft 462 kts 163°
2026-04-23 10:15 54.71836 -3.53943 35341 ft 462 kts 163°
2026-04-23 10:16 54.68772 -3.52305 35489 ft 461 kts 163°
2026-04-23 10:16 54.65753 -3.50690 35516 ft 459 kts 163°
2026-04-23 10:16 54.59660 -3.47423 35512 ft 458 kts 163°
2026-04-23 10:17 54.53570 -3.44173 35512 ft 458 kts 163°
2026-04-23 10:17 54.47472 -3.40949 35512 ft 458 kts 163°
2026-04-23 10:18 54.41416 -3.37751 35514 ft 459 kts 163°
2026-04-23 10:18 54.35310 -3.34529 35513 ft 460 kts 163°
2026-04-23 10:19 54.29192 -3.31312 35510 ft 460 kts 163°
2026-04-23 10:19 54.24105 -3.28644 35511 ft 460 kts 163°
2026-04-23 10:20 54.19281 -3.26171 35509 ft 460 kts 166°
2026-04-23 10:20 54.12985 -3.24749 35496 ft 460 kts 175°
2026-04-23 10:21 54.06598 -3.23759 35489 ft 461 kts 175°
2026-04-23 10:21 54.00227 -3.22451 35482 ft 462 kts 167°
2026-04-23 10:22 53.94157 -3.18920 35482 ft 462 kts 159°
2026-04-23 10:22 53.88190 -3.15056 35476 ft 462 kts 159°
2026-04-23 10:23 53.82169 -3.11202 35479 ft 463 kts 159°
2026-04-23 10:23 53.76143 -3.07355 35479 ft 463 kts 159°
2026-04-23 10:24 53.70116 -3.03511 35492 ft 463 kts 159°
2026-04-23 10:24 53.64090 -2.99677 35512 ft 463 kts 159°
2026-04-23 10:25 53.58102 -2.95862 35509 ft 463 kts 159°
2026-04-23 10:25 53.52066 -2.92047 35509 ft 464 kts 159°
2026-04-23 10:26 53.46026 -2.88238 35507 ft 463 kts 159°
2026-04-23 10:26 53.39989 -2.84436 35482 ft 463 kts 159°
2026-04-23 10:27 53.33995 -2.80679 35499 ft 463 kts 159°
2026-04-23 10:27 53.27954 -2.76898 35498 ft 464 kts 159°
2026-04-23 10:28 53.21909 -2.73129 35499 ft 464 kts 159°
2026-04-23 10:28 53.15857 -2.69371 35494 ft 464 kts 159°
2026-04-23 10:29 53.09800 -2.65612 35487 ft 464 kts 159°
2026-04-23 10:29 53.03786 -2.61876 35483 ft 464 kts 159°
2026-04-23 10:30 52.97726 -2.58147 35484 ft 464 kts 159°
2026-04-23 10:30 52.91661 -2.54432 35474 ft 465 kts 160°
2026-04-23 10:31 52.85576 -2.50711 35481 ft 466 kts 159°
2026-04-23 10:31 52.79682 -2.46425 35474 ft 466 kts 148°
2026-04-23 10:32 52.74280 -2.40491 35474 ft 467 kts 145°
2026-04-23 10:32 52.68874 -2.34539 35478 ft 468 kts 145°
2026-04-23 10:33 52.63450 -2.28595 35479 ft 468 kts 145°
2026-04-23 10:33 52.58028 -2.22649 35395 ft 469 kts 145°
2026-04-23 10:34 52.55304 -2.19671 34546 ft 472 kts 145°
2026-04-23 10:34 52.52608 -2.16725 33424 ft 471 kts 145°
2026-04-23 10:34 52.49894 -2.13762 32379 ft 466 kts 145°
2026-04-23 10:34 52.47201 -2.10828 31339 ft 463 kts 145°
2026-04-23 10:35 52.44519 -2.07921 30102 ft 462 kts 145°
2026-04-23 10:35 52.41843 -2.05027 28889 ft 458 kts 145°
2026-04-23 10:35 52.39196 -2.02162 27875 ft 452 kts 145°
2026-04-23 10:35 52.36625 -1.99379 27335 ft 438 kts 145°
2026-04-23 10:36 52.34075 -1.96620 26611 ft 439 kts 145°
2026-04-23 10:36 52.31529 -1.93868 25924 ft 438 kts 145°
2026-04-23 10:36 52.29025 -1.91172 25249 ft 436 kts 145°
2026-04-23 10:36 52.26498 -1.88458 24570 ft 434 kts 145°
2026-04-23 10:37 52.23976 -1.85757 23896 ft 433 kts 145°
2026-04-23 10:37 52.21466 -1.83072 23184 ft 430 kts 145°
2026-04-23 10:37 52.18977 -1.80408 22570 ft 426 kts 145°
2026-04-23 10:37 52.16513 -1.77772 21965 ft 422 kts 145°
2026-04-23 10:38 52.14063 -1.75158 21371 ft 419 kts 144°
2026-04-23 10:38 52.11632 -1.72566 20809 ft 416 kts 145°
2026-04-23 10:38 52.09222 -1.70001 20286 ft 412 kts 145°
2026-04-23 10:38 52.06827 -1.67455 19974 ft 410 kts 146°
2026-04-23 10:39 52.04479 -1.64962 19617 ft 407 kts 146°
2026-04-23 10:39 52.02120 -1.62458 19233 ft 404 kts 146°
2026-04-23 10:39 51.99781 -1.59971 18884 ft 400 kts 146°
2026-04-23 10:39 51.97462 -1.57507 18496 ft 397 kts 146°
2026-04-23 10:40 51.95159 -1.55068 18157 ft 394 kts 146°
2026-04-23 10:40 51.92870 -1.52656 17814 ft 391 kts 146°
2026-04-23 10:40 51.90594 -1.50263 17475 ft 389 kts 146°
2026-04-23 10:40 51.88364 -1.47918 17140 ft 386 kts 146°
2026-04-23 10:41 51.86118 -1.45559 16806 ft 384 kts 146°
2026-04-23 10:41 51.83884 -1.43216 16471 ft 382 kts 146°
2026-04-23 10:41 51.81660 -1.40885 16138 ft 380 kts 146°
2026-04-23 10:41 51.79450 -1.38567 15817 ft 378 kts 146°
2026-04-23 10:42 51.77251 -1.36267 15478 ft 375 kts 145°
2026-04-23 10:42 51.75068 -1.33987 15237 ft 373 kts 145°
2026-04-23 10:42 51.72893 -1.31714 15014 ft 372 kts 145°
2026-04-23 10:42 51.70729 -1.29450 14792 ft 370 kts 145°
2026-04-23 10:43 51.68575 -1.27205 14560 ft 368 kts 146°
2026-04-23 10:43 51.66456 -1.25003 14339 ft 367 kts 146°
2026-04-23 10:43 51.64317 -1.22781 14100 ft 365 kts 146°
2026-04-23 10:43 51.62187 -1.20570 13874 ft 364 kts 146°
2026-04-23 10:44 51.60064 -1.18367 13650 ft 362 kts 146°
2026-04-23 10:44 51.57953 -1.16175 13429 ft 361 kts 146°
2026-04-23 10:44 51.55847 -1.13994 13208 ft 360 kts 146°
2026-04-23 10:44 51.53748 -1.11826 12987 ft 358 kts 145°
2026-04-23 10:45 51.51659 -1.09673 12770 ft 356 kts 145°
2026-04-23 10:45 51.49609 -1.07564 12550 ft 354 kts 146°
2026-04-23 10:45 51.47543 -1.05439 12332 ft 352 kts 146°
2026-04-23 10:45 51.45482 -1.03318 12111 ft 351 kts 146°
2026-04-23 10:46 51.43432 -1.01208 11895 ft 350 kts 146°
2026-04-23 10:46 51.41390 -0.99109 11676 ft 348 kts 146°
2026-04-23 10:46 51.39355 -0.97016 11450 ft 348 kts 146°
2026-04-23 10:46 51.37347 -0.94956 11272 ft 335 kts 146°
2026-04-23 10:47 51.35428 -0.92994 11145 ft 320 kts 146°
2026-04-23 10:47 51.33590 -0.91119 11016 ft 306 kts 145°
2026-04-23 10:47 51.31858 -0.89354 10906 ft 290 kts 144°
2026-04-23 10:47 51.30183 -0.87649 10594 ft 283 kts 145°
2026-04-23 10:48 51.28534 -0.85966 10374 ft 280 kts 145°
2026-04-23 10:48 51.26899 -0.84294 10254 ft 279 kts 145°
2026-04-23 10:48 51.25262 -0.82625 10117 ft 279 kts 145°
2026-04-23 10:48 51.23627 -0.80964 9986 ft 278 kts 144°
2026-04-23 10:49 51.22007 -0.79321 9854 ft 274 kts 144°
2026-04-23 10:49 51.20398 -0.77688 9721 ft 274 kts 145°
2026-04-23 10:49 51.18788 -0.76046 9592 ft 275 kts 144°
2026-04-23 10:49 51.17205 -0.74434 9491 ft 273 kts 144°
2026-04-23 10:50 51.15604 -0.72813 9407 ft 273 kts 144°
2026-04-23 10:50 51.14005 -0.71196 9262 ft 272 kts 144°
2026-04-23 10:50 51.12414 -0.69589 9107 ft 270 kts 144°
2026-04-23 10:50 51.10828 -0.67992 8946 ft 269 kts 144°
2026-04-23 10:51 51.09251 -0.66403 8792 ft 268 kts 144°
2026-04-23 10:51 51.07679 -0.64818 8632 ft 267 kts 144°
2026-04-23 10:51 51.06169 -0.63123 8472 ft 264 kts 135°
2026-04-23 10:51 51.04963 -0.60928 8314 ft 264 kts 122°
2026-04-23 10:52 51.04101 -0.58367 8159 ft 263 kts 115°
2026-04-23 10:52 51.03301 -0.55799 8006 ft 263 kts 115°
2026-04-23 10:52 51.02487 -0.53204 7849 ft 262 kts 116°
2026-04-23 10:52 51.01680 -0.50627 7698 ft 260 kts 116°
2026-04-23 10:53 51.00876 -0.48063 7550 ft 259 kts 116°
2026-04-23 10:53 51.00075 -0.45512 7398 ft 258 kts 116°
2026-04-23 10:53 50.99266 -0.42940 6953 ft 262 kts 116°
2026-04-23 10:53 50.98460 -0.40383 6654 ft 256 kts 116°
2026-04-23 10:54 50.97660 -0.37857 6512 ft 256 kts 116°
2026-04-23 10:54 50.96875 -0.35376 6367 ft 255 kts 116°
2026-04-23 10:54 50.96084 -0.32871 6218 ft 253 kts 116°
2026-04-23 10:54 50.95300 -0.30390 6074 ft 251 kts 116°
2026-04-23 10:55 50.94517 -0.27917 5925 ft 251 kts 116°
2026-04-23 10:55 50.93733 -0.25444 5773 ft 251 kts 116°
2026-04-23 10:55 50.92947 -0.22970 5636 ft 252 kts 116°
2026-04-23 10:55 50.92163 -0.20504 5485 ft 250 kts 116°
2026-04-23 10:56 50.91382 -0.18053 5344 ft 248 kts 116°
2026-04-23 10:56 50.90617 -0.15661 5198 ft 236 kts 116°
2026-04-23 10:56 50.89898 -0.13409 5058 ft 224 kts 116°
2026-04-23 10:56 50.89217 -0.11272 4876 ft 217 kts 116°
2026-04-23 10:57 50.88553 -0.09147 4751 ft 215 kts 112°
2026-04-23 10:57 50.88315 -0.06832 4623 ft 215 kts 87°
2026-04-23 10:57 50.88764 -0.04569 4475 ft 220 kts 63°
2026-04-23 10:57 50.89838 -0.02812 4349 ft 228 kts 36°
2026-04-23 10:58 50.91363 -0.02026 4222 ft 238 kts
2026-04-23 10:58 50.93000 -0.02535 4095 ft 247 kts 336°
2026-04-23 10:58 50.94293 -0.04334 3966 ft 253 kts 303°
2026-04-23 10:58 50.94991 -0.06895 3994 ft 255 kts 291°
2026-04-23 10:59 50.95668 -0.09462 3992 ft 256 kts 294°
2026-04-23 10:59 50.96403 -0.12039 3994 ft 257 kts 294°
2026-04-23 10:59 50.97147 -0.14603 3990 ft 255 kts 295°
2026-04-23 10:59 50.97888 -0.17154 3990 ft 254 kts 295°
2026-04-23 11:00 50.98571 -0.19741 4001 ft 255 kts 286°
2026-04-23 11:00 50.99034 -0.22463 3801 ft 255 kts 284°
2026-04-23 11:00 50.99472 -0.25171 3608 ft 252 kts 283°
2026-04-23 11:00 50.99903 -0.27871 3427 ft 252 kts 283°
2026-04-23 11:01 51.00331 -0.30563 3250 ft 251 kts 284°
2026-04-23 11:01 51.00753 -0.33211 3097 ft 250 kts 284°
2026-04-23 11:01 51.01179 -0.35886 3000 ft 249 kts 284°
2026-04-23 11:01 51.01603 -0.38545 3011 ft 248 kts 284°
2026-04-23 11:02 51.02026 -0.41203 3011 ft 248 kts 284°
2026-04-23 11:02 51.02448 -0.43856 3009 ft 248 kts 284°
2026-04-23 11:02 51.02873 -0.46513 3007 ft 249 kts 284°
2026-04-23 11:02 51.03301 -0.49188 3006 ft 250 kts 284°
2026-04-23 11:03 51.03748 -0.51861 3005 ft 251 kts 289°
2026-04-23 11:03 51.04736 -0.54040 3019 ft 242 kts 330°
2026-04-23 11:03 51.06294 -0.54988 3016 ft 240 kts 358°
2026-04-23 11:03 51.07846 -0.54811 3007 ft 217 kts 23°
2026-04-23 11:04 51.09105 -0.53783 3010 ft 193 kts 45°
2026-04-23 11:04 51.09963 -0.52260 3017 ft 180 kts 63°
2026-04-23 11:04 51.10423 -0.50459 3004 ft 174 kts 80°
2026-04-23 11:04 51.10685 -0.48591 3017 ft 172 kts 80°
2026-04-23 11:05 51.10947 -0.46739 3008 ft 171 kts 80°
2026-04-23 11:05 51.11207 -0.44892 3010 ft 171 kts 81°
2026-04-23 11:05 51.11466 -0.43046 3000 ft 170 kts 80°
2026-04-23 11:05 51.11721 -0.41235 2817 ft 167 kts 80°
2026-04-23 11:06 51.12187 -0.37923 2417 ft 138 kts 79°
2026-04-23 11:06 51.12385 -0.36511 2248 ft 127 kts 78°
2026-04-23 11:06 51.12573 -0.35158 2066 ft 124 kts 77°
2026-04-23 11:07 51.12756 -0.33848 1907 ft 121 kts 77°
2026-04-23 11:07 51.12938 -0.32548 1742 ft 119 kts 76°
2026-04-23 11:07 51.13117 -0.31257 1584 ft 120 kts 77°
2026-04-23 11:07 51.13298 -0.29962 1417 ft 119 kts 78°
2026-04-23 11:08 51.13478 -0.28669 1260 ft 119 kts 76°
2026-04-23 11:08 51.13654 -0.27399 1097 ft 118 kts 76°
2026-04-23 11:08 51.13833 -0.26114 923 ft 119 kts 77°
2026-04-23 11:08 51.14010 -0.24836 773 ft 119 kts 76°
2026-04-23 11:09 51.14191 -0.23530 603 ft 121 kts 76°
2026-04-23 11:09 51.14369 -0.22246 448 ft 120 kts 77°
2026-04-23 11:09 51.14548 -0.20957 283 ft 119 kts 76°
2026-04-23 11:09 51.14714 -0.19717 215 ft 104 kts 76°
2026-04-23 11:10 51.14840 -0.18850 203 ft 56 kts 77°
2026-04-23 11:10 51.14941 -0.18511 206 ft 26 kts 51°
2026-04-23 11:10 51.15040 -0.18315 211 ft 15 kts 51°
2026-04-23 11:10 51.15087 -0.18222 203 ft 10 kts 49°
2026-04-23 11:11 51.15143 -0.18189 204 ft 9 kts 347°
2026-04-23 11:11 51.15200 -0.18165 205 ft 9 kts 52°
2026-04-23 11:11 51.15247 -0.18096 207 ft 10 kts
2026-04-23 11:11 51.15318 -0.18119 215 ft 11 kts 347°
2026-04-23 11:12 51.15350 -0.18131 207 ft 2 kts 347°
2026-04-23 11:12 51.15366 -0.18137 204 ft 3 kts 347°
2026-04-23 11:12 51.15402 -0.18149 206 ft 7 kts 347°
2026-04-23 11:12 51.15452 -0.18121 211 ft 9 kts 57°
2026-04-23 11:13 51.15471 -0.18002 204 ft 13 kts 77°
2026-04-23 11:13 51.15492 -0.17848 207 ft 16 kts 77°
2026-04-23 11:13 51.15514 -0.17693 207 ft 6 kts 78°
2026-04-23 11:13 51.15534 -0.17663 204 ft 5 kts
2026-04-23 11:14 51.15566 -0.17676 204 ft 2 kts 349°
2026-04-23 11:14 51.15583 -0.17681 215 ft 2 kts 349°
2026-04-23 11:14 51.15585 -0.17682 214 ft 0 kts 349°